Weather History for Buffalo, NY

Change the Weather History Date:

Wednesday, December 4, 2013

  Actual Average Record
Temperature  
Mean Temperature 44 °F 34 °F  
Max Temperature 54 °F 40 °F 70 °F (1941)
Min Temperature 34 °F 28 °F -2 °F (1966)
Degree Days  
Heating Degree Days 21 31  
Month to date heating degree days 113 122  
Since 1 July heating degree days 1431 1455  
Cooling Degree Days 0 0  
Month to date cooling degree days 0 0  
Year to date cooling degree days 611 544  
Moisture  
Dew Point 36 °F    
Average Humidity 76    
Maximum Humidity 92    
Minimum Humidity 59    
Precipitation  
Precipitation 0.03 in 0.12 in 0.95 in (1891)
Month to date precipitation 0.03 0.50  
Year to date precipitation 41.12 37.09  
Snow  
Snow 0.00 in 0.70 in 5.40 in (2006)
Month to date snowfall 0.0 2.5  
Since 1 July snowfall 10.0 11.3  
Snow Depth 0.00 in    
Sea Level Pressure  
Sea Level Pressure 29.95 in    
Wind  
Wind Speed 5 mph (East)    
Max Wind Speed 12 mph    
Max Gust Speed 15 mph    
Visibility 7 miles    
Events Rain    
T = Trace of Precipitation, MM = Missing Value Source: NWS Daily Summary

Daily Weather History Graph

Daily Weather History Graph

Search for Another Location

Airport:

Trip Planner

Search our weather history database for the weather conditions in past years. The results will help you decide how hot, cold, wet, or windy it might be!

Date:

Astronomy

Dec. 04, 2013 Rise Set
Actual Time 7:29 AM EST 4:40 PM EST
Civil Twilight 6:57 AM EST 5:12 PM EST
Nautical Twilight 6:22 AM EST 5:48 PM EST
Astronomical Twilight 5:48 AM EST 6:22 PM EST
Moon 8:55 AM EST (12/4) 6:50 PM EST (12/4)
Length of Visible Light 10h 14m
Length of Day
9h 11m
Waxing Crescent, 4% of the Moon is Illuminated
Dec 4
Waxing Crescent
Dec 9
First Quarter
Dec 17
Full
Dec 25
Last Quarter
Jan 1
New

Hourly Weather History & Observations

Time (EST) Temp. Windchill Dew Point Humidity Pressure Visibility Wind Dir Wind Speed Gust Speed Precip Events Conditions
12:54 AM 34.0 °F 26.6 °F 28.0 °F 79% 29.96 in 10.0 mi ENE 9.2 mph - N/A   Overcast
1:54 AM 34.0 °F 28.8 °F 28.0 °F 79% 29.96 in 9.0 mi East 5.8 mph - N/A   Overcast
2:54 AM 34.0 °F 28.8 °F 28.9 °F 82% 29.98 in 7.0 mi ENE 5.8 mph - 0.00 in Rain Light Rain
3:54 AM 34.0 °F 31.0 °F 30.9 °F 89% 29.97 in 5.0 mi ENE 3.5 mph - 0.01 in Rain Light Rain
4:54 AM 34.0 °F 28.8 °F 30.9 °F 89% 29.97 in 4.0 mi ENE 5.8 mph - 0.02 in Rain Light Rain
5:54 AM 34.0 °F 28.8 °F 32.0 °F 92% 29.95 in 4.0 mi ENE 5.8 mph - 0.00 in   Overcast
6:54 AM 36.0 °F 32.1 °F 34.0 °F 93% 29.97 in 4.0 mi NE 4.6 mph - N/A   Overcast
7:54 AM 35.1 °F 31.0 °F 33.1 °F 92% 29.98 in 3.0 mi NE 4.6 mph - N/A   Mostly Cloudy
8:14 AM 35.6 °F 31.7 °F 33.8 °F 93% 29.97 in 2.0 mi NNE 4.6 mph - N/A   Overcast
8:54 AM 36.0 °F 33.3 °F 34.0 °F 93% 30.01 in 2.5 mi ENE 3.5 mph - N/A   Overcast
9:23 AM 37.4 °F 34.9 °F 35.6 °F 93% 29.98 in 4.0 mi ENE 3.5 mph - N/A   Mostly Cloudy
9:54 AM 39.9 °F - 37.0 °F 89% 30.00 in 6.0 mi Calm Calm - N/A   Partly Cloudy
10:54 AM 46.0 °F - 39.0 °F 76% 30.00 in 8.0 mi Calm Calm - N/A   Scattered Clouds
11:54 AM 50.0 °F - 39.0 °F 66% 29.96 in 8.0 mi SSW 3.5 mph - N/A   Mostly Cloudy
12:54 PM 53.1 °F - 39.0 °F 59% 29.96 in 10.0 mi Calm Calm - N/A   Mostly Cloudy
1:54 PM 53.1 °F - 39.9 °F 61% 29.94 in 10.0 mi Calm Calm - N/A   Mostly Cloudy
2:54 PM 53.1 °F - 41.0 °F 64% 29.94 in 10.0 mi Calm Calm - N/A   Mostly Cloudy
3:54 PM 48.0 °F - 39.9 °F 74% 29.95 in 9.0 mi ENE 5.8 mph - N/A   Overcast
4:54 PM 46.0 °F 41.4 °F 39.0 °F 76% 29.94 in 7.0 mi ENE 9.2 mph - N/A   Overcast
5:54 PM 45.0 °F 43.5 °F 37.9 °F 76% 29.95 in 8.0 mi East 3.5 mph - N/A   Overcast
6:54 PM 46.0 °F 42.5 °F 37.9 °F 73% 29.93 in 9.0 mi East 6.9 mph - N/A   Overcast
7:54 PM 46.0 °F 42.5 °F 37.9 °F 73% 29.91 in 10.0 mi East 6.9 mph - N/A   Mostly Cloudy
8:54 PM 46.0 °F 41.4 °F 37.9 °F 73% 29.89 in 10.0 mi ESE 9.2 mph - N/A   Mostly Cloudy
9:54 PM 48.9 °F - 39.9 °F 71% 29.88 in 10.0 mi SE 8.1 mph - N/A   Overcast
10:54 PM 48.9 °F - 39.9 °F 71% 29.86 in 10.0 mi SE 10.4 mph - N/A   Overcast
11:54 PM 48.0 °F - 39.9 °F 74% 29.84 in 10.0 mi SE 10.4 mph - N/A   Mostly Cloudy